• In Uzbekistan
  • List of Countries
  • For 7 days
  • Water Temperature
  • Satellite Maps
  • Weather Map
  • Weather Widgets
  • user-avatar
    Login

    Hourly Weather Abovyan

    Today, 21 January, Saturday

    Time Temperature Precipitation Wind Pressure Humidity
    00:00 -7°C° 0.1 mm 0 mps 671 mmHg 91%
    01:00 -7°C° 0.1 mm 0 mps 671 mmHg 91%
    02:00 -7°C° 0.1 mm 0 mps 671 mmHg 91%
    03:00 -8°C° 0 mm 1 mps 670 mmHg 93%
    04:00 -8°C° 0 mm 1 mps 670 mmHg 93%
    05:00 -9°C° 0 mm 1 mps 670 mmHg 93%
    06:00 -10°C° 0 mm 1 mps 670 mmHg 93%
    07:00 -8°C° 0 mm 1 mps 670 mmHg 91%
    08:00 -6°C° 0 mm 1 mps 671 mmHg 88%
    09:00 -3°C° 0 mm 1 mps 672 mmHg 85%
    10:00 -2°C° 0 mm 1 mps 672 mmHg 84%
    11:00 -1°C° 0 mm 1 mps 672 mmHg 83%
    12:00 0°C° 0 mm 1 mps 672 mmHg 83%
    13:00 0°C° 0 mm 1 mps 671 mmHg 83%
    14:00 0°C° 0 mm 1 mps 671 mmHg 84%
    15:00 +1°C° 0 mm 1 mps 671 mmHg 85%
    16:00 -3°C° 0 mm 1 mps 670 mmHg 88%
    17:00 -7°C° 0 mm 1 mps 670 mmHg 91%
    18:00 -10°C° 0 mm 1 mps 669 mmHg 94%
    19:00 -10°C° 0 mm 1 mps 669 mmHg 93%
    20:00 -11°C° 0 mm 1 mps 669 mmHg 92%
    21:00 -11°C° 0 mm 1 mps 669 mmHg 91%
    22:00 -11°C° 0 mm 1 mps 670 mmHg 90%
    23:00 -11°C° 0 mm 1 mps 670 mmHg 90%

    Tomorrow, 22 January, Sunday

    Time Temperature Precipitation Wind Pressure Humidity
    00:00 -11°C° 0 mm 1 mps 670 mmHg 89%
    01:00 -11°C° 0 mm 1 mps 670 mmHg 89%
    02:00 -11°C° 0 mm 1 mps 670 mmHg 88%
    03:00 -11°C° 0 mm 1 mps 671 mmHg 88%
    04:00 -10°C° 0 mm 1 mps 671 mmHg 88%
    05:00 -10°C° 0 mm 1 mps 671 mmHg 88%
    06:00 -9°C° 0 mm 1 mps 671 mmHg 87%
    07:00 -8°C° 0 mm 1 mps 672 mmHg 86%
    08:00 -7°C° 0 mm 1 mps 672 mmHg 85%
    09:00 -4°C° 0 mm 1 mps 673 mmHg 83%
    10:00 -3°C° 0 mm 1 mps 673 mmHg 82%
    11:00 -1°C° 0 mm 1 mps 672 mmHg 81%
    12:00 -2°C° 0 mm 2 mps 672 mmHg 79%
    13:00 -2°C° 0 mm 2 mps 672 mmHg 80%
    14:00 0°C° 0 mm 1 mps 672 mmHg 82%
    15:00 +1°C° 0 mm 1 mps 672 mmHg 83%
    16:00 -4°C° 0 mm 2 mps 672 mmHg 84%
    17:00 -6°C° 0 mm 2 mps 672 mmHg 85%
    18:00 -9°C° 0 mm 2 mps 672 mmHg 87%
    19:00 -9°C° 0 mm 2 mps 672 mmHg 87%
    20:00 -9°C° 0 mm 2 mps 673 mmHg 87%
    21:00 -9°C° 0 mm 2 mps 673 mmHg 86%
    22:00 -9°C° 0 mm 1 mps 673 mmHg 86%
    23:00 -9°C° 0 mm 1 mps 674 mmHg 86%

    Day after tomorrow, 23 January, Monday

    Time Temperature Precipitation Wind Pressure Humidity
    00:00 -10°C° 0 mm 1 mps 674 mmHg 86%
    01:00 -10°C° 0 mm 1 mps 674 mmHg 87%
    02:00 -11°C° 0 mm 1 mps 674 mmHg 87%
    03:00 -11°C° 0 mm 1 mps 674 mmHg 87%
    04:00 -11°C° 0 mm 1 mps 674 mmHg 87%
    05:00 -11°C° 0 mm 1 mps 674 mmHg 87%
    06:00 -12°C° 0 mm 1 mps 674 mmHg 87%
    07:00 -9°C° 0 mm 1 mps 675 mmHg 85%
    08:00 -7°C° 0 mm 1 mps 677 mmHg 84%
    09:00 -4°C° 0 mm 1 mps 678 mmHg 82%
    10:00 -2°C° 0 mm 1 mps 677 mmHg 81%
    11:00 0°C° 0 mm 1 mps 677 mmHg 80%
    12:00 +1°C° 0 mm 1 mps 677 mmHg 78%
    13:00 +1°C° 0 mm 1 mps 677 mmHg 79%
    14:00 +1°C° 0 mm 1 mps 676 mmHg 80%
    15:00 +2°C° 0 mm 1 mps 676 mmHg 81%
    16:00 -2°C° 0 mm 1 mps 675 mmHg 84%
    17:00 -6°C° 0 mm 1 mps 674 mmHg 87%
    18:00 -10°C° 0 mm 1 mps 673 mmHg 90%
    19:00 -10°C° 0 mm 1 mps 674 mmHg 89%
    20:00 -11°C° 0 mm 1 mps 674 mmHg 89%
    21:00 -11°C° 0 mm 1 mps 674 mmHg 88%
    22:00 -11°C° 0 mm 1 mps 674 mmHg 88%
    23:00 -12°C° 0 mm 1 mps 674 mmHg 88%

    24 January, Tuesday

    Time Temperature Precipitation Wind Pressure Humidity
    00:00 -12°C° 0 mm 1 mps 674 mmHg 88%
    01:00 -12°C° 0 mm 1 mps 674 mmHg 87%
    02:00 -13°C° 0 mm 1 mps 674 mmHg 87%
    03:00 -13°C° 0 mm 1 mps 674 mmHg 87%
    04:00 -13°C° 0 mm 1 mps 674 mmHg 86%
    05:00 -13°C° 0 mm 1 mps 674 mmHg 86%
    06:00 -12°C° 0 mm 1 mps 674 mmHg 85%
    07:00 -10°C° 0 mm 1 mps 675 mmHg 84%
    08:00 -7°C° 0 mm 1 mps 676 mmHg 82%
    09:00 -3°C° 0 mm 1 mps 678 mmHg 80%
    10:00 -1°C° 0 mm 1 mps 677 mmHg 79%
    11:00 +1°C° 0 mm 1 mps 677 mmHg 78%
    12:00 +1°C° 0 mm 2 mps 677 mmHg 77%
    13:00 +1°C° 0 mm 2 mps 677 mmHg 78%
    14:00 +1°C° 0 mm 2 mps 676 mmHg 79%
    15:00 +1°C° 0 mm 2 mps 675 mmHg 80%
    16:00 -3°C° 0 mm 2 mps 675 mmHg 83%
    17:00 -6°C° 0 mm 1 mps 674 mmHg 85%
    18:00 -9°C° 0 mm 1 mps 673 mmHg 88%
    19:00 -10°C° 0 mm 1 mps 673 mmHg 87%
    20:00 -10°C° 0 mm 1 mps 673 mmHg 87%
    21:00 -10°C° 0 mm 1 mps 673 mmHg 86%
    22:00 -10°C° 0 mm 1 mps 673 mmHg 85%
    23:00 -10°C° 0 mm 1 mps 672 mmHg 83%

    25 January, Wednesday

    Time Temperature Precipitation Wind Pressure Humidity
    00:00 -9°C° 0 mm 1 mps 672 mmHg 82%
    01:00 -8°C° 0 mm 1 mps 672 mmHg 80%
    02:00 -7°C° 0 mm 1 mps 672 mmHg 78%
    03:00 -7°C° 0 mm 2 mps 672 mmHg 76%
    04:00 -7°C° 0 mm 2 mps 671 mmHg 76%
    05:00 -8°C° 0 mm 2 mps 671 mmHg 76%
    06:00 -8°C° 0 mm 2 mps 671 mmHg 76%
    07:00 -6°C° 0 mm 2 mps 671 mmHg 76%
    08:00 -5°C° 0 mm 2 mps 671 mmHg 75%
    09:00 -3°C° 0 mm 2 mps 671 mmHg 75%
    10:00 -1°C° 0 mm 2 mps 671 mmHg 75%
    11:00 +1°C° 0 mm 2 mps 670 mmHg 74%
    12:00 +1°C° 0 mm 3 mps 670 mmHg 74%
    13:00 +1°C° 0.2 mm 3 mps 669 mmHg 76%
    14:00 +1°C° 0.2 mm 3 mps 668 mmHg 79%
    15:00 0°C° 0.2 mm 3 mps 668 mmHg 81%
    16:00 -1°C° 0.1 mm 3 mps 668 mmHg 82%
    17:00 -2°C° 0.1 mm 2 mps 667 mmHg 83%
    18:00 -3°C° 0.1 mm 2 mps 667 mmHg 84%
    19:00 -3°C° 0 mm 2 mps 667 mmHg 84%
    20:00 -3°C° 0 mm 2 mps 667 mmHg 83%
    21:00 -3°C° 0 mm 2 mps 667 mmHg 82%
    22:00 -4°C° 0 mm 2 mps 667 mmHg 82%
    23:00 -4°C° 0 mm 2 mps 667 mmHg 82%

    26 January, Thursday

    Time Temperature Precipitation Wind Pressure Humidity
    00:00 -4°C° 0 mm 2 mps 667 mmHg 82%
    01:00 -3°C° 0.1 mm 2 mps 667 mmHg 83%
    02:00 -3°C° 0.1 mm 2 mps 667 mmHg 83%
    03:00 -3°C° 0.1 mm 2 mps 667 mmHg 84%
    04:00 -3°C° 0.2 mm 2 mps 666 mmHg 85%
    05:00 -3°C° 0.2 mm 2 mps 666 mmHg 86%
    06:00 -2°C° 0.2 mm 2 mps 666 mmHg 87%
    07:00 -2°C° 0.3 mm 2 mps 666 mmHg 87%
    08:00 -2°C° 0.3 mm 2 mps 666 mmHg 87%
    09:00 -1°C° 0.3 mm 2 mps 666 mmHg 87%
    10:00 -1°C° 0.3 mm 2 mps 666 mmHg 86%
    11:00 +1°C° 0.3 mm 2 mps 665 mmHg 85%
    12:00 +2°C° 0.3 mm 2 mps 665 mmHg 84%
    13:00 +2°C° 0.3 mm 2 mps 665 mmHg 85%
    14:00 +2°C° 0.3 mm 2 mps 665 mmHg 85%
    15:00 +2°C° 0.3 mm 2 mps 664 mmHg 86%
    16:00 +1°C° 0.2 mm 2 mps 665 mmHg 88%
    17:00 -1°C° 0.2 mm 2 mps 665 mmHg 89%
    18:00 0°C° 0.2 mm 1 mps 665 mmHg 91%
    19:00 0°C° 0.2 mm 1 mps 665 mmHg 91%
    20:00 -1°C° 0.2 mm 1 mps 665 mmHg 91%
    21:00 -1°C° 0.2 mm 1 mps 665 mmHg 91%
    22:00 -1°C° 0.2 mm 1 mps 665 mmHg 91%
    23:00 -1°C° 0.2 mm 1 mps 665 mmHg 91%
    Show more